Stündliche Wetter Kyustendil

Heute, 10 Mai, Montag

Zeit Temperatur Niederschläge Wind Luftdruck Luftfeuchtigkeit
00:00 +9°C° 0 mm 1 m/S 700 mmHg 84%
01:00 +9°C° 0 mm 1 m/S 700 mmHg 86%
02:00 +8°C° 0 mm 1 m/S 700 mmHg 88%
03:00 +8°C° 0 mm 1 m/S 700 mmHg 89%
04:00 +8°C° 0 mm 1 m/S 700 mmHg 90%
05:00 +7°C° 0 mm 0 m/S 700 mmHg 91%
06:00 +9°C° 0 mm 1 m/S 700 mmHg 84%
07:00 +11°C° 0 mm 1 m/S 700 mmHg 78%
08:00 +13°C° 0 mm 1 m/S 700 mmHg 72%
09:00 +15°C° 0 mm 1 m/S 700 mmHg 66%
10:00 +18°C° 0 mm 1 m/S 700 mmHg 60%
11:00 +20°C° 0 mm 1 m/S 700 mmHg 55%
12:00 +21°C° 0 mm 1 m/S 700 mmHg 53%
13:00 +22°C° 0 mm 1 m/S 700 mmHg 51%
14:00 +23°C° 0 mm 1 m/S 700 mmHg 49%
15:00 +23°C° 0 mm 1 m/S 699 mmHg 50%
16:00 +22°C° 0 mm 1 m/S 699 mmHg 50%
17:00 +22°C° 0 mm 1 m/S 698 mmHg 51%
18:00 +20°C° 0 mm 1 m/S 698 mmHg 60%
19:00 +18°C° 0 mm 1 m/S 698 mmHg 68%
20:00 +15°C° 0 mm 1 m/S 698 mmHg 77%
21:00 +14°C° 0 mm 1 m/S 698 mmHg 79%
22:00 +13°C° 0 mm 1 m/S 698 mmHg 82%
23:00 +11°C° 0 mm 0 m/S 698 mmHg 84%

Morgen, 11 Mai, Dienstag

Zeit Temperatur Niederschläge Wind Luftdruck Luftfeuchtigkeit
00:00 +10°C° 0 mm 0 m/S 698 mmHg 85%
01:00 +10°C° 0 mm 0 m/S 697 mmHg 86%
02:00 +9°C° 0 mm 0 m/S 697 mmHg 87%
03:00 +9°C° 0 mm 0 m/S 697 mmHg 88%
04:00 +9°C° 0 mm 0 m/S 697 mmHg 89%
05:00 +9°C° 0 mm 0 m/S 697 mmHg 89%
06:00 +11°C° 0 mm 0 m/S 697 mmHg 84%
07:00 +12°C° 0 mm 0 m/S 697 mmHg 78%
08:00 +15°C° 0 mm 1 m/S 697 mmHg 73%
09:00 +18°C° 0 mm 1 m/S 697 mmHg 68%
10:00 +20°C° 0 mm 1 m/S 697 mmHg 63%
11:00 +21°C° 0 mm 1 m/S 697 mmHg 59%
12:00 +22°C° 0 mm 1 m/S 697 mmHg 56%
13:00 +23°C° 0 mm 1 m/S 696 mmHg 54%
14:00 +24°C° 0 mm 1 m/S 696 mmHg 51%
15:00 +24°C° 0 mm 1 m/S 696 mmHg 53%
16:00 +23°C° 0 mm 1 m/S 695 mmHg 55%
17:00 +23°C° 0 mm 1 m/S 695 mmHg 56%
18:00 +21°C° 0 mm 1 m/S 695 mmHg 64%
19:00 +19°C° 0 mm 1 m/S 694 mmHg 72%
20:00 +16°C° 0 mm 1 m/S 694 mmHg 80%
21:00 +15°C° 0 mm 1 m/S 694 mmHg 82%
22:00 +14°C° 0 mm 1 m/S 694 mmHg 85%
23:00 +13°C° 0 mm 1 m/S 694 mmHg 87%

übermorgen, 12 Mai, Mittwoch

Zeit Temperatur Niederschläge Wind Luftdruck Luftfeuchtigkeit
00:00 +13°C° 0 mm 1 m/S 693 mmHg 88%
01:00 +12°C° 0 mm 1 m/S 693 mmHg 89%
02:00 +12°C° 0 mm 1 m/S 692 mmHg 90%
03:00 +11°C° 0 mm 1 m/S 692 mmHg 91%
04:00 +11°C° 0 mm 1 m/S 692 mmHg 91%
05:00 +11°C° 0 mm 1 m/S 692 mmHg 92%
06:00 +12°C° 0 mm 1 m/S 692 mmHg 86%
07:00 +14°C° 0 mm 1 m/S 691 mmHg 80%
08:00 +16°C° 0 mm 1 m/S 691 mmHg 74%
09:00 +18°C° 0 mm 2 m/S 691 mmHg 69%
10:00 +19°C° 0 mm 2 m/S 691 mmHg 64%
11:00 +21°C° 0 mm 3 m/S 691 mmHg 59%
12:00 +21°C° 0.3 mm 3 m/S 690 mmHg 57%
13:00 +21°C° 0.3 mm 4 m/S 690 mmHg 56%
14:00 +22°C° 0.3 mm 4 m/S 690 mmHg 54%
15:00 +21°C° 0.5 mm 4 m/S 690 mmHg 59%
16:00 +20°C° 0.5 mm 4 m/S 689 mmHg 63%
17:00 +19°C° 0.5 mm 4 m/S 689 mmHg 68%
18:00 +17°C° 1.3 mm 3 m/S 689 mmHg 76%
19:00 +14°C° 1.3 mm 2 m/S 689 mmHg 85%
20:00 +12°C° 1.3 mm 1 m/S 689 mmHg 93%
21:00 +11°C° 0.2 mm 1 m/S 690 mmHg 92%
22:00 +11°C° 0.2 mm 1 m/S 690 mmHg 91%
23:00 +10°C° 0.2 mm 1 m/S 690 mmHg 90%

13 Mai, Donnerstag

Zeit Temperatur Niederschläge Wind Luftdruck Luftfeuchtigkeit
00:00 +10°C° 0 mm 1 m/S 690 mmHg 88%
01:00 +10°C° 0 mm 1 m/S 690 mmHg 87%
02:00 +10°C° 0 mm 1 m/S 689 mmHg 86%
03:00 +9°C° 0 mm 1 m/S 689 mmHg 86%
04:00 +8°C° 0 mm 0 m/S 689 mmHg 87%
05:00 +8°C° 0 mm 0 m/S 689 mmHg 87%
06:00 +9°C° 0 mm 0 m/S 689 mmHg 82%
07:00 +11°C° 0 mm 0 m/S 690 mmHg 78%
08:00 +13°C° 0 mm 0 m/S 690 mmHg 73%
09:00 +15°C° 0.1 mm 1 m/S 690 mmHg 67%
10:00 +18°C° 0.1 mm 1 m/S 690 mmHg 61%
11:00 +18°C° 0.1 mm 2 m/S 690 mmHg 54%
12:00 +18°C° 0.2 mm 2 m/S 690 mmHg 53%
13:00 +18°C° 0.2 mm 3 m/S 690 mmHg 52%
14:00 +19°C° 0.2 mm 3 m/S 690 mmHg 51%
15:00 +18°C° 0.2 mm 3 m/S 690 mmHg 54%
16:00 +18°C° 0.2 mm 4 m/S 690 mmHg 58%
17:00 +18°C° 0.2 mm 4 m/S 690 mmHg 61%
18:00 +16°C° 0.2 mm 3 m/S 690 mmHg 67%
19:00 +14°C° 0.2 mm 2 m/S 690 mmHg 72%
20:00 +13°C° 0.2 mm 1 m/S 690 mmHg 78%
21:00 +12°C° 0.2 mm 1 m/S 690 mmHg 80%
22:00 +11°C° 0.2 mm 1 m/S 690 mmHg 82%
23:00 +11°C° 0.2 mm 1 m/S 690 mmHg 84%

14 Mai, Freitag

Zeit Temperatur Niederschläge Wind Luftdruck Luftfeuchtigkeit
00:00 +11°C° 0.2 mm 1 m/S 690 mmHg 85%
01:00 +11°C° 0.2 mm 1 m/S 691 mmHg 86%
02:00 +9°C° 0.2 mm 0 m/S 691 mmHg 86%
03:00 +9°C° 0.2 mm 0 m/S 691 mmHg 87%
04:00 +9°C° 0.2 mm 0 m/S 691 mmHg 89%
05:00 +9°C° 0.2 mm 0 m/S 691 mmHg 90%
06:00 +10°C° 0.1 mm 0 m/S 691 mmHg 85%
07:00 +12°C° 0.1 mm 1 m/S 692 mmHg 81%
08:00 +14°C° 0.1 mm 1 m/S 692 mmHg 76%
09:00 +15°C° 0.3 mm 1 m/S 692 mmHg 70%
10:00 +16°C° 0.3 mm 2 m/S 693 mmHg 65%
11:00 +17°C° 0.3 mm 2 m/S 693 mmHg 59%
12:00 +18°C° 0.2 mm 2 m/S 693 mmHg 56%
13:00 +18°C° 0.2 mm 3 m/S 693 mmHg 54%
14:00 +19°C° 0.2 mm 3 m/S 693 mmHg 51%
15:00 +18°C° 0.1 mm 3 m/S 693 mmHg 53%
16:00 +18°C° 0.1 mm 3 m/S 693 mmHg 54%
17:00 +18°C° 0.1 mm 2 m/S 693 mmHg 56%
18:00 +16°C° 0 mm 2 m/S 693 mmHg 62%
19:00 +15°C° 0 mm 2 m/S 693 mmHg 68%
20:00 +13°C° 0 mm 1 m/S 693 mmHg 73%
21:00 +12°C° 0 mm 1 m/S 693 mmHg 74%
22:00 +11°C° 0 mm 1 m/S 694 mmHg 74%
23:00 +10°C° 0 mm 1 m/S 694 mmHg 74%

15 Mai, Samstag

Zeit Temperatur Niederschläge Wind Luftdruck Luftfeuchtigkeit
00:00 +10°C° 0 mm 1 m/S 694 mmHg 74%
01:00 +10°C° 0 mm 1 m/S 694 mmHg 74%
02:00 +10°C° 0 mm 1 m/S 694 mmHg 73%
03:00 +10°C° 0 mm 1 m/S 694 mmHg 73%
04:00 +9°C° 0 mm 0 m/S 694 mmHg 72%
05:00 +9°C° 0 mm 0 m/S 694 mmHg 72%
06:00 +11°C° 0 mm 1 m/S 694 mmHg 69%
07:00 +13°C° 0 mm 1 m/S 694 mmHg 67%
08:00 +14°C° 0 mm 1 m/S 694 mmHg 64%
09:00 +16°C° 0 mm 1 m/S 694 mmHg 59%
10:00 +19°C° 0 mm 1 m/S 694 mmHg 53%
11:00 +19°C° 0 mm 2 m/S 694 mmHg 48%
12:00 +20°C° 0 mm 2 m/S 694 mmHg 48%
13:00 +20°C° 0 mm 3 m/S 694 mmHg 47%
14:00 +20°C° 0 mm 4 m/S 693 mmHg 47%
15:00 +18°C° 0.6 mm 3 m/S 693 mmHg 59%
16:00 +16°C° 0.6 mm 3 m/S 693 mmHg 72%
17:00 +14°C° 0.6 mm 2 m/S 692 mmHg 84%
18:00 +14°C° 0.8 mm 2 m/S 692 mmHg 88%
19:00 +13°C° 0.8 mm 2 m/S 691 mmHg 91%
20:00 +12°C° 0.8 mm 2 m/S 691 mmHg 95%
21:00 +12°C° 2.3 mm 1 m/S 690 mmHg 95%
22:00 +12°C° 2.3 mm 1 m/S 690 mmHg 96%
23:00 +12°C° 2.3 mm 1 m/S 690 mmHg 97%
Mehr zeigen

Wir brauchen deine Erlaubnis

Meteoprog und unser Service Anbieter werden persönliche Daten aufbewahren, so wie Cookies, Geräte Bezeichnung oder ähnliche Technologien von deinem Gerät und Prozess, so wie Persönliche Daten Inhalte und Werbungen, genauso wie social Media und den Verkehr zu analysieren.

  • Aufbewahrung und/oder Zugang zu deiner Geräte Informationen.

    Cookies, Geräte Bezeichnung oder andere Informationen, können aufbewahrt oder Zugang zu deinem Gerät erhalten, für den Grund, der oben angegeben wird.

  • Personalisierte Werbung und Inhalte, Messungen, Einblick in das Publikum und Produkt Entwicklung.

    Werbungen und Inhalte können personalisiert werden, basierend auf ein Profil. Mehr Daten können besser personalisierte Werbungen und Inhalte hinzufügen. Werbung und Inhalte können gezeigt und gemessen werden. Einblicke über das Publikum, welche die Werbung gesehen haben und den Inhalt, können abgeleitet werden. So wie Daten können genutzt werden, um es zu verbessern oder die Benutzer Erfahrung zu verbessern das System und die Software.

Wenn du “Ich stimme zu” klickst, erlaubst du uns, die Cookies zu benutzen die Geräte Bezeichnung, den Web oder ähnliche Technologien zu benutzen. Deine Settings, können in deinem Gerät bei deinem Browser geändert werden.

Für den bestimmten Zweck, berechtigten Interessen beruhen darauf, mehr als auf den Inhalt. Du kannst mehr darüber in unseren Privaten und Cookie Politik lesen.